Location: Thiviers
(45.4167°N, 0.9167°E)
Time: 20:51:12
(UTC+01:00)

ISS - Visible Passes

Search period start: 19 January 2022 00:00
Search period end: 29 January 2022 00:00
Orbit: 413 x 422 km, 51.6° (Epoch: 19 January)

Date Brightness Start Highest point End Pass type
(mag) Time Alt. Az. Time Alt. Az. Time Alt. Az.
19 Jan -2.8 19:00:30 10° SSW 19:03:30 32° SE 19:04:41 24° E visible
19 Jan -0.6 20:36:57 10° W 20:37:38 15° W 20:37:38 15° W visible
20 Jan -2.0 18:13:13 10° S 18:15:44 20° SE 18:18:17 10° E visible
20 Jan -3.3 19:48:56 10° WSW 19:51:53 60° WNW 19:51:53 60° WNW visible
21 Jan -3.8 19:01:04 10° WSW 19:04:24 81° SSE 19:06:08 26° ENE visible
21 Jan -0.6 20:38:25 10° WNW 20:39:05 14° WNW 20:39:05 14° WNW visible
22 Jan -2.7 19:50:25 10° W 19:53:20 37° NNW 19:53:20 37° NNW visible
23 Jan -3.2 19:02:32 10° W 19:05:47 48° NNW 19:07:38 22° NE visible
23 Jan -0.5 20:40:09 10° WNW 20:40:35 13° WNW 20:40:35 13° WNW visible
24 Jan -2.2 19:52:19 10° WNW 19:54:55 27° NNW 19:54:55 27° NNW visible
25 Jan -2.5 19:04:32 10° WNW 19:07:33 31° NNW 19:09:17 19° NE visible
25 Jan -0.5 20:41:58 10° NW 20:42:15 12° NW 20:42:15 12° NW visible
26 Jan -2.1 19:54:23 10° WNW 19:56:41 25° NNW 19:56:41 25° NNW visible
27 Jan -2.4 19:06:48 10° WNW 19:09:42 27° N 19:11:12 19° NE visible
27 Jan -0.5 20:43:51 10° NW 20:44:10 12° NW 20:44:10 12° NW visible
28 Jan -2.3 19:56:29 10° NW 19:58:46 29° NNW 19:58:46 29° NNW visible
